This is the latest recevied weather packets stored in our database for station/object NEWPRT. If no packets are shown the sender has not sent any weather packets the latest 10 day(s).
| Time | Temp. | Humidity | Pressure | Rain* | Wind** | Luminosity | Snow |
|---|---|---|---|---|---|---|---|
| 1777970625 | - | 80% | 1015.7 hPa | 0.25 mm | - | - | - |
| 1777970301 | - | 79% | 1015.7 hPa | 0.25 mm | - | - | - |
| 1777969978 | - | 79% | 1015.6 hPa | 0.25 mm | - | - | - |
| 1777969655 | - | 77% | 1015.6 hPa | 0.25 mm | - | - | - |
| 1777969332 | - | 79% | 1015.4 hPa | 0.25 mm | - | - | - |
| 1777969010 | - | 80% | 1015.3 hPa | 0.25 mm | - | - | - |
| 1777968686 | - | 79% | 1015.6 hPa | 0.25 mm | - | - | - |
| 1777968363 | - | 77% | 1015.3 hPa | 0.25 mm | - | - | - |
| 1777968040 | - | 78% | 1015.4 hPa | 0.25 mm | - | - | - |
| 1777967718 | - | 78% | 1015.3 hPa | 0 mm | - | - | - |
| 1777967396 | - | 78% | 1015.5 hPa | 0 mm | - | - | - |
| 1777967071 | - | 78% | 1015.3 hPa | 0 mm | - | - | - |
| 1777966748 | - | 76% | 1015.1 hPa | 0 mm | - | - | - |
| 1777966425 | - | 77% | 1015.3 hPa | 0 mm | - | - | - |
| 1777966103 | - | 77% | 1015.5 hPa | 0 mm | - | - | - |
| 1777965779 | - | 77% | 1015.5 hPa | 0.25 mm | - | - | - |
| 1777965456 | - | 77% | 1015.3 hPa | 0.25 mm | - | - | - |
| 1777965133 | - | 78% | 1015.6 hPa | 0.25 mm | - | - | - |
| 1777964811 | - | 77% | 1015.7 hPa | 0.25 mm | - | - | - |
| 1777964488 | - | 78% | 1015.7 hPa | 0.25 mm | - | - | - |
| 1777964164 | - | 79% | 1015.6 hPa | 0.25 mm | - | - | - |
| 1777963841 | - | 79% | 1015.7 hPa | 0.25 mm | - | - | - |
| 1777963518 | - | 79% | 1015.5 hPa | 0.51 mm | - | - | - |
| 1777963195 | - | 77% | 1015.4 hPa | 0.51 mm | - | - | - |
| 1777962872 | - | 80% | 1015.6 hPa | 0.51 mm | - | - | - |
* Rain latest hour (hover to see other rain measurements)
** Current wind speed in m/s (hover to see current wind gust speed)